TimeEDT,TemperatureF,Dew PointF,Humidity,Sea Level PressureIn,VisibilityMPH,Wind Direction,Wind SpeedMPH,Gust SpeedMPH,PrecipitationIn,Events,Conditions,WindDirDegrees,DateUTC
12:53 AM,55.9,42.1,60,29.99,10.0,NNW,9.2,-,N/A,,Overcast,330,2013-06-03 04:53:00
1:53 AM,55.0,42.1,62,30.00,10.0,NW,9.2,-,N/A,,Overcast,320,2013-06-03 05:53:00
2:53 AM,54.0,41.0,62,29.99,10.0,NNW,12.7,-,N/A,,Overcast,330,2013-06-03 06:53:00
3:53 AM,52.0,39.9,63,30.01,10.0,NW,9.2,-,N/A,,Overcast,320,2013-06-03 07:53:00
4:53 AM,48.0,39.0,71,30.03,10.0,NW,5.8,-,N/A,,Mostly Cloudy,320,2013-06-03 08:53:00
5:03 AM,46.4,39.2,76,30.04,10.0,NW,4.6,-,N/A,,Scattered Clouds,320,2013-06-03 09:03:00
5:53 AM,45.0,37.9,76,30.04,10.0,NNW,5.8,-,N/A,,Clear,330,2013-06-03 09:53:00
6:53 AM,46.9,39.0,74,30.05,10.0,NNW,3.5,-,N/A,,Clear,340,2013-06-03 10:53:00
7:53 AM,51.1,39.9,66,30.06,10.0,NNW,6.9,-,N/A,,Clear,340,2013-06-03 11:53:00
8:53 AM,54.0,39.0,57,30.06,10.0,North,5.8,-,N/A,,Clear,350,2013-06-03 12:53:00
9:53 AM,57.0,37.9,49,30.07,10.0,North,5.8,-,N/A,,Clear,10,2013-06-03 13:53:00
10:53 AM,61.0,37.9,42,30.07,10.0,ENE,6.9,-,N/A,,Clear,60,2013-06-03 14:53:00
11:53 AM,63.0,37.0,38,30.08,10.0,NNE,8.1,-,N/A,,Clear,20,2013-06-03 15:53:00
12:53 PM,63.0,35.1,35,30.07,10.0,Variable,4.6,-,N/A,,Clear,0,2013-06-03 16:53:00
1:53 PM,66.9,39.0,36,30.06,10.0,North,6.9,-,N/A,,Clear,360,2013-06-03 17:53:00
2:53 PM,68.0,37.0,32,30.04,10.0,Calm,Calm,-,N/A,,Clear,0,2013-06-03 18:53:00
3:53 PM,68.0,37.9,33,30.02,10.0,Variable,3.5,-,N/A,,Clear,0,2013-06-03 19:53:00
4:53 PM,69.1,37.0,31,30.02,10.0,Calm,Calm,-,N/A,,Clear,0,2013-06-03 20:53:00
5:53 PM,70.0,39.0,32,30.01,10.0,NW,10.4,-,N/A,,Clear,320,2013-06-03 21:53:00
6:53 PM,69.1,37.9,32,30.02,10.0,NW,5.8,-,N/A,,Clear,310,2013-06-03 22:53:00
7:53 PM,66.9,41.0,39,30.03,10.0,NNW,6.9,-,N/A,,Clear,330,2013-06-03 23:53:00
8:53 PM,63.0,42.1,46,30.04,10.0,NNW,3.5,-,N/A,,Clear,330,2013-06-04 00:53:00
9:53 PM,57.0,46.0,67,30.05,10.0,Calm,Calm,-,N/A,,Clear,0,2013-06-04 01:53:00
10:53 PM,57.9,44.1,60,30.07,10.0,Calm,Calm,-,N/A,,Clear,0,2013-06-04 02:53:00
11:53 PM,57.0,46.0,67,30.09,10.0,Calm,Calm,-,N/A,,Clear,0,2013-06-04 03:53:00